| time (UTC) | temp F | wind direction | speed MPH | gust MPH | rain 1hr in | rain 24hr in | rain mn in | humidity % | barometer mb |
| 20260505080620 | 93 | 123 | 0.0 | 0.0 | 0.00 | 0.00 | 0.00 | 57 | 1007.4 |
| 20260505080117 | 94 | 228 | 0.0 | 1.0 | 0.00 | 0.00 | 0.00 | 58 | 1007.3 |
| 20260505075613 | 93 | 150 | 0.0 | 1.0 | 0.00 | 0.00 | 0.00 | 55 | 1007.3 |
| 20260505075110 | 93 | 18 | 0.0 | 2.0 | 0.00 | 0.00 | 0.00 | 57 | 1007.4 |
| 20260505074607 | 92 | 71 | 1.0 | 1.0 | 0.00 | 0.00 | 0.00 | 57 | 1007.4 |
| 20260505074104 | 93 | 36 | 0.0 | 3.0 | 0.00 | 0.00 | 0.00 | 57 | 1007.6 |
| 20260505073601 | 93 | 157 | 1.0 | 2.0 | 0.00 | 0.00 | 0.00 | 56 | 1007.6 |
| 20260505073100 | 93 | 64 | 0.0 | 1.0 | 0.00 | 0.00 | 0.00 | 57 | 1007.5 |
| 20260505072555 | 93 | 347 | 1.0 | 3.0 | 0.00 | 0.00 | 0.00 | 56 | 1007.7 |
| 20260505072052 | 96 | 88 | 1.0 | 4.0 | 0.00 | 0.00 | 0.00 | 53 | 1007.5 |
| 20260505071547 | 95 | 63 | 0.0 | 1.0 | 0.00 | 0.00 | 0.00 | 56 | 1007.5 |
| 20260505071046 | 94 | 34 | 1.0 | 2.0 | 0.00 | 0.00 | 0.00 | 55 | 1007.6 |
| 20260505070542 | 94 | 165 | 0.0 | 2.0 | 0.00 | 0.00 | 0.00 | 55 | 1007.8 |
| 20260505070038 | 94 | 274 | 0.0 | 2.0 | 0.00 | 0.00 | 0.00 | 57 | 1007.7 |
| 20260505065534 | 95 | 17 | 2.0 | 4.0 | 0.00 | 0.00 | 0.00 | 56 | 1007.4 |
| 20260505065031 | 94 | 316 | 0.0 | 2.0 | 0.00 | 0.00 | 0.00 | 57 | 1007.7 |
| 20260505064528 | 94 | 120 | 1.0 | 3.0 | 0.00 | 0.00 | 0.00 | 56 | 1007.8 |
| 20260505064027 | 94 | 288 | 0.0 | 1.0 | 0.00 | 0.00 | 0.00 | 58 | 1007.7 |
| 20260505063524 | 94 | 171 | 0.0 | 2.0 | 0.00 | 0.00 | 0.00 | 57 | 1007.9 |
| 20260505063019 | 93 | 166 | 1.0 | 2.0 | 0.00 | 0.00 | 0.00 | 58 | 1007.9 |
| 20260505062516 | 94 | 178 | 2.0 | 3.0 | 0.00 | 0.00 | 0.00 | 58 | 1007.9 |
| 20260505062014 | 93 | 197 | 2.0 | 3.0 | 0.00 | 0.00 | 0.00 | 59 | 1007.9 |
| 20260505061511 | 92 | 30 | 0.0 | 4.0 | 0.00 | 0.00 | 0.00 | 61 | 1008.1 |
| 20260505061009 | 93 | 50 | 0.0 | 1.0 | 0.00 | 0.00 | 0.00 | 60 | 1008.2 |
| 20260505060506 | 95 | 210 | 1.0 | 4.0 | 0.00 | 0.00 | 0.00 | 57 | 1008.1 |
| 20260505060002 | 95 | 180 | 1.0 | 3.0 | 0.00 | 0.00 | 0.00 | 57 | 1008.0 |
| 20260505055458 | 95 | 29 | 1.0 | 2.0 | 0.00 | 0.00 | 0.00 | 55 | 1008.2 |
| 20260505054955 | 94 | 203 | 0.0 | 0.0 | 0.00 | 0.00 | 0.00 | 56 | 1007.9 |
| 20260505054452 | 94 | 306 | 1.0 | 4.0 | 0.00 | 0.00 | 0.00 | 58 | 1008.1 |
| 20260505053950 | 94 | 139 | 1.0 | 2.0 | 0.00 | 0.00 | 0.00 | 56 | 1008.2 |
| 20260505053447 | 94 | 138 | 1.0 | 8.0 | 0.00 | 0.00 | 0.00 | 57 | 1008.3 |
| 20260505052943 | 96 | 15 | 2.0 | 3.0 | 0.00 | 0.00 | 0.00 | 54 | 1008.3 |
| 20260505052441 | 95 | 172 | 0.0 | 4.0 | 0.00 | 0.00 | 0.00 | 56 | 1008.3 |
| 20260505051938 | 94 | 147 | 0.0 | 1.0 | 0.00 | 0.00 | 0.00 | 58 | 1008.4 |
| 20260505051434 | 92 | 197 | 0.0 | 1.0 | 0.00 | 0.00 | 0.00 | 61 | 1008.4 |
| 20260505050933 | 93 | 29 | 1.0 | 1.0 | 0.00 | 0.00 | 0.00 | 59 | 1008.5 |
| 20260505050431 | 95 | 271 | 0.0 | 1.0 | 0.00 | 0.00 | 0.00 | 57 | 1008.5 |
| 20260505041358 | 96 | 359 | 0.0 | 2.0 | 0.00 | 0.00 | 0.00 | 54 | 1009.1 |
| 20260505040855 | 96 | 234 | 1.0 | 2.0 | 0.00 | 0.00 | 0.00 | 55 | 1009.0 |
| 20260505040353 | 96 | 158 | 1.0 | 2.0 | 0.00 | 0.00 | 0.00 | 53 | 1009.2 |
| 20260505035850 | 96 | 15 | 1.0 | 3.0 | 0.00 | 0.00 | 0.00 | 54 | 1009.4 |
| 20260505035345 | 95 | 219 | 0.0 | 3.0 | 0.00 | 0.00 | 0.00 | 54 | 1009.2 |
| 20260505034843 | 95 | 35 | 1.0 | 2.0 | 0.00 | 0.00 | 0.00 | 56 | 1009.1 |
| 20260505034339 | 96 | 169 | 1.0 | 1.0 | 0.00 | 0.00 | 0.00 | 54 | 1009.4 |
| 20260505033837 | 95 | 344 | 1.0 | 2.0 | 0.00 | 0.00 | 0.00 | 55 | 1009.4 |
| 20260505033333 | 95 | 1 | 1.0 | 2.0 | 0.00 | 0.00 | 0.00 | 54 | 1009.4 |
| 20260505032832 | 95 | 159 | 0.0 | 2.0 | 0.00 | 0.00 | 0.00 | 56 | 1009.5 |
| 20260505032328 | 95 | 181 | 3.0 | 4.0 | 0.00 | 0.00 | 0.00 | 55 | 1009.4 |
| 20260505031825 | 96 | 158 | 0.0 | 2.0 | 0.00 | 0.00 | 0.00 | 54 | 1009.7 |
| 20260505031321 | 95 | 199 | 0.0 | 1.0 | 0.00 | 0.00 | 0.00 | 57 | 1009.8 |
| 20260505030819 | 93 | 222 | 1.0 | 2.0 | 0.00 | 0.00 | 0.00 | 58 | 1009.6 |
| 20260505030315 | 95 | 186 | 1.0 | 2.0 | 0.00 | 0.00 | 0.00 | 55 | 1009.7 |
| 20260505025810 | 94 | 201 | 0.0 | 2.0 | 0.00 | 0.00 | 0.00 | 58 | 1009.9 |
| 20260505025308 | 93 | 242 | 0.0 | 2.0 | 0.00 | 0.00 | 0.00 | 60 | 1009.8 |
| 20260505024806 | 94 | 159 | 1.0 | 3.0 | 0.00 | 0.00 | 0.00 | 57 | 1010.0 |
| 20260505024303 | 94 | 237 | 2.0 | 3.0 | 0.00 | 0.00 | 0.00 | 58 | 1009.7 |
| 20260505023801 | 95 | 310 | 1.0 | 4.0 | 0.00 | 0.00 | 0.00 | 59 | 1009.7 |
| 20260505023257 | 95 | 158 | 0.0 | 1.0 | 0.00 | 0.00 | 0.00 | 57 | 1009.6 |
| 20260505022755 | 95 | 350 | 2.0 | 2.0 | 0.00 | 0.00 | 0.00 | 57 | 1009.8 |
| 20260505022252 | 94 | 36 | 0.0 | 3.0 | 0.00 | 0.00 | 0.00 | 59 | 1009.8 |
| 20260505021749 | 94 | 17 | 2.0 | 3.0 | 0.00 | 0.00 | 0.00 | 59 | 1009.9 |
| 20260505021246 | 95 | 139 | 1.0 | 2.0 | 0.00 | 0.00 | 0.00 | 58 | 1010.0 |
| 20260505020741 | 94 | 291 | 0.0 | 2.0 | 0.00 | 0.00 | 0.00 | 60 | 1009.9 |
| 20260505020237 | 93 | 278 | 0.0 | 2.0 | 0.00 | 0.00 | 0.00 | 62 | 1010.2 |
| 20260505015734 | 93 | 279 | 1.0 | 6.0 | 0.00 | 0.00 | 0.00 | 61 | 1009.8 |
| 20260505015231 | 92 | 54 | 2.0 | 3.0 | 0.00 | 0.00 | 0.00 | 61 | 1010.2 |
| 20260505014728 | 92 | 246 | 1.0 | 2.0 | 0.00 | 0.00 | 0.00 | 62 | 1010.2 |
| 20260505014225 | 93 | 213 | 1.0 | 3.0 | 0.00 | 0.00 | 0.00 | 63 | 1010.3 |
| 20260505013722 | 94 | 33 | 1.0 | 3.0 | 0.00 | 0.00 | 0.00 | 59 | 1010.3 |
| 20260505013219 | 93 | 147 | 1.0 | 2.0 | 0.00 | 0.00 | 0.00 | 63 | 1010.3 |
| 20260505012717 | 92 | 139 | 0.0 | 3.0 | 0.00 | 0.00 | 0.00 | 64 | 1010.3 |
| 20260505012214 | 92 | 50 | 0.0 | 2.0 | 0.00 | 0.00 | 0.00 | 64 | 1010.4 |
| 20260505011710 | 92 | 124 | 3.0 | 6.0 | 0.00 | 0.00 | 0.00 | 64 | 1010.2 |
| 20260505011207 | 91 | 284 | 1.0 | 2.0 | 0.00 | 0.00 | 0.00 | 67 | 1010.3 |
| 20260505010702 | 90 | 130 | 0.0 | 1.0 | 0.00 | 0.00 | 0.00 | 70 | 1010.4 |
| 20260505010200 | 87 | 171 | 0.0 | 1.0 | 0.00 | 0.00 | 0.00 | 79 | 1010.3 |
| 20260505005655 | 86 | 237 | 0.0 | 0.0 | 0.00 | 0.00 | 0.00 | 76 | 1010.4 |
| 20260505005153 | 88 | 237 | 0.0 | 0.0 | 0.00 | 0.00 | 0.00 | 76 | 1010.2 |
| 20260505004650 | 89 | 173 | 0.0 | 0.0 | 0.00 | 0.00 | 0.00 | 72 | 1010.4 |
| 20260505004146 | 88 | 319 | 0.0 | 1.0 | 0.00 | 0.00 | 0.00 | 71 | 1010.5 |
| 20260505003643 | 87 | 206 | 0.0 | 2.0 | 0.00 | 0.00 | 0.00 | 73 | 1010.3 |
| 20260505003141 | 87 | 217 | 0.0 | 2.0 | 0.00 | 0.00 | 0.00 | 76 | 1010.5 |
| 20260505002637 | 88 | 164 | 0.0 | 1.0 | 0.00 | 0.00 | 0.00 | 77 | 1010.5 |
| 20260505002135 | 87 | 21 | 0.0 | 2.0 | 0.00 | 0.00 | 0.00 | 75 | 1010.3 |
| 20260505001632 | 87 | 211 | 0.0 | 2.0 | 0.00 | 0.00 | 0.00 | 75 | 1010.2 |
| 20260505001130 | 87 | 257 | 0.0 | 1.0 | 0.00 | 0.00 | 0.00 | 76 | 1010.2 |
| 20260505000626 | 86 | 193 | 0.0 | 1.0 | 0.00 | 0.00 | 0.00 | 80 | 1010.2 |
| 20260505000125 | 85 | 359 | 0.0 | 1.0 | 0.00 | 0.00 | 0.00 | 82 | 1010.3 |
| 20260504235620 | 85 | 208 | 0.0 | 0.0 | 0.00 | 0.00 | 0.00 | 84 | 1010.0 |
| 20260504235117 | 84 | 252 | 0.0 | 0.0 | 0.00 | 0.00 | 0.00 | 85 | 1010.1 |
| 20260504234614 | 83 | 292 | 1.0 | 1.0 | 0.00 | 0.00 | 0.00 | 87 | 1010.2 |
| 20260504234111 | 82 | 193 | 0.0 | 0.0 | 0.00 | 0.00 | 0.00 | 90 | 1009.8 |
| 20260504233607 | 82 | 141 | 0.0 | 0.0 | 0.00 | 0.00 | 0.00 | 90 | 1010.1 |
| 20260504233103 | 81 | 152 | 0.0 | 0.0 | 0.00 | 0.00 | 0.00 | 91 | 1010.1 |
| 20260504232601 | 81 | 182 | 0.0 | 0.0 | 0.00 | 0.00 | 0.00 | 91 | 1009.8 |
| 20260504232058 | 81 | 182 | 0.0 | 0.0 | 0.00 | 0.00 | 0.00 | 91 | 1009.9 |
| 20260504231554 | 81 | 182 | 0.0 | 0.0 | 0.00 | 0.00 | 0.00 | 92 | 1009.7 |
| 20260504231051 | 80 | 264 | 0.0 | 0.0 | 0.00 | 0.00 | 0.00 | 92 | 1009.5 |
| 20260504230547 | 80 | 210 | 0.0 | 0.0 | 0.00 | 0.00 | 0.00 | 94 | 1009.7 |
| 20260504230046 | 80 | 210 | 0.0 | 0.0 | 0.00 | 0.00 | 0.00 | 94 | 1009.5 |
| 20260504225543 | 80 | 210 | 0.0 | 0.0 | 0.00 | 0.00 | 0.00 | 94 | 1009.5 |
| 20260504225040 | 79 | 210 | 0.0 | 0.0 | 0.00 | 0.00 | 0.00 | 94 | 1009.3 |
| 20260504224536 | 79 | 267 | 0.0 | 0.0 | 0.00 | 0.00 | 0.00 | 94 | 1009.6 |
| 20260504224034 | 79 | 141 | 0.0 | 0.0 | 0.00 | 0.00 | 0.00 | 94 | 1009.5 |
| 20260504223530 | 79 | 31 | 0.0 | 0.0 | 0.00 | 0.00 | 0.00 | 94 | 1009.3 |
| 20260504223026 | 78 | 31 | 0.0 | 0.0 | 0.00 | 0.00 | 0.00 | 94 | 1009.3 |
| 20260504222523 | 78 | 31 | 0.0 | 0.0 | 0.00 | 0.00 | 0.00 | 94 | 1009.3 |
| 20260504222021 | 78 | 31 | 0.0 | 0.0 | 0.00 | 0.00 | 0.00 | 94 | 1009.4 |
| 20260504221518 | 78 | 31 | 0.0 | 0.0 | 0.00 | 0.00 | 0.00 | 94 | 1009.3 |
| 20260504221015 | 78 | 31 | 0.0 | 0.0 | 0.00 | 0.00 | 0.00 | 94 | 1009.3 |
| 20260504220511 | 78 | 31 | 0.0 | 0.0 | 0.00 | 0.00 | 0.00 | 94 | 1009.4 |
| 20260504220008 | 77 | 31 | 0.0 | 0.0 | 0.00 | 0.00 | 0.00 | 94 | 1009.2 |
| 20260504215505 | 77 | 31 | 0.0 | 0.0 | 0.00 | 0.00 | 0.00 | 94 | 1009.0 |
| 20260504215002 | 77 | 31 | 0.0 | 0.0 | 0.00 | 0.00 | 0.00 | 94 | 1009.1 |
| 20260504214458 | 77 | 31 | 0.0 | 0.0 | 0.00 | 0.00 | 0.00 | 94 | 1008.9 |
| 20260504213954 | 77 | 31 | 0.0 | 0.0 | 0.00 | 0.00 | 0.00 | 94 | 1008.8 |
| 20260504213450 | 77 | 30 | 0.0 | 0.0 | 0.00 | 0.00 | 0.00 | 94 | 1008.7 |
| 20260504212948 | 77 | 30 | 0.0 | 0.0 | 0.00 | 0.00 | 0.00 | 94 | 1008.7 |
| 20260504212444 | 77 | 31 | 0.0 | 0.0 | 0.00 | 0.00 | 0.00 | 94 | 1008.7 |
| 20260504211942 | 77 | 31 | 0.0 | 0.0 | 0.00 | 0.00 | 0.00 | 94 | 1008.3 |
| 20260504211438 | 77 | 31 | 0.0 | 0.0 | 0.00 | 0.00 | 0.00 | 94 | 1008.6 |
| 20260504210935 | 77 | 31 | 0.0 | 0.0 | 0.00 | 0.00 | 0.00 | 94 | 1008.6 |
| 20260504210432 | 77 | 31 | 0.0 | 0.0 | 0.00 | 0.00 | 0.00 | 94 | 1008.6 |
| 20260504205929 | 76 | 31 | 0.0 | 0.0 | 0.00 | 0.00 | 0.00 | 94 | 1008.3 |
| 20260504205427 | 76 | 31 | 0.0 | 0.0 | 0.00 | 0.00 | 0.00 | 94 | 1008.6 |
| 20260504204925 | 76 | 31 | 0.0 | 0.0 | 0.00 | 0.00 | 0.00 | 94 | 1008.6 |
| 20260504204423 | 77 | 31 | 0.0 | 0.0 | 0.00 | 0.00 | 0.00 | 94 | 1008.5 |
| 20260504203922 | 76 | 31 | 0.0 | 0.0 | 0.00 | 0.00 | 0.00 | 94 | 1008.4 |
| 20260504203419 | 76 | 31 | 0.0 | 0.0 | 0.00 | 0.00 | 0.00 | 94 | 1008.4 |
| 20260504202915 | 76 | 31 | 0.0 | 0.0 | 0.00 | 0.00 | 0.00 | 94 | 1008.2 |
| 20260504202412 | 76 | 31 | 0.0 | 0.0 | 0.00 | 0.00 | 0.00 | 94 | 1008.5 |
| 20260504201908 | 76 | 31 | 0.0 | 0.0 | 0.00 | 0.00 | 0.00 | 94 | 1008.3 |
| 20260504201406 | 76 | 31 | 0.0 | 0.0 | 0.00 | 0.00 | 0.00 | 94 | 1008.5 |
| 20260504200903 | 76 | 31 | 0.0 | 0.0 | 0.00 | 0.00 | 0.00 | 94 | 1008.3 |
| 20260504200359 | 76 | 31 | 0.0 | 0.0 | 0.00 | 0.00 | 0.00 | 94 | 1008.3 |
| 20260504195856 | 76 | 31 | 0.0 | 0.0 | 0.00 | 0.00 | 0.00 | 94 | 1008.2 |
| 20260504195352 | 77 | 31 | 0.0 | 0.0 | 0.00 | 0.00 | 0.00 | 94 | 1008.3 |
| 20260504194848 | 77 | 31 | 0.0 | 0.0 | 0.00 | 0.00 | 0.00 | 94 | 1008.3 |
| 20260504194344 | 76 | 31 | 0.0 | 0.0 | 0.00 | 0.00 | 0.00 | 94 | 1008.1 |
| 20260504193841 | 76 | 31 | 0.0 | 0.0 | 0.00 | 0.00 | 0.00 | 94 | 1008.4 |
| 20260504193338 | 76 | 31 | 0.0 | 0.0 | 0.00 | 0.00 | 0.00 | 94 | 1008.4 |
| 20260504192837 | 76 | 31 | 0.0 | 0.0 | 0.00 | 0.00 | 0.00 | 94 | 1008.6 |
| 20260504192334 | 76 | 31 | 0.0 | 0.0 | 0.00 | 0.00 | 0.00 | 94 | 1008.6 |
| 20260504191832 | 76 | 31 | 0.0 | 0.0 | 0.00 | 0.00 | 0.00 | 94 | 1008.7 |
| 20260504191330 | 76 | 31 | 0.0 | 0.0 | 0.00 | 0.00 | 0.00 | 94 | 1008.6 |
| 20260504190825 | 77 | 31 | 0.0 | 0.0 | 0.00 | 0.00 | 0.00 | 94 | 1008.6 |
| 20260504190321 | 77 | 31 | 0.0 | 0.0 | 0.00 | 0.00 | 0.00 | 94 | 1008.9 |
| 20260504185818 | 76 | 31 | 0.0 | 0.0 | 0.00 | 0.00 | 0.00 | 94 | 1009.1 |
| 20260504185315 | 77 | 31 | 0.0 | 0.0 | 0.00 | 0.00 | 0.00 | 94 | 1008.8 |
| 20260504184811 | 77 | 31 | 0.0 | 0.0 | 0.00 | 0.00 | 0.00 | 94 | 1008.9 |
| 20260504184307 | 77 | 31 | 0.0 | 0.0 | 0.00 | 0.00 | 0.00 | 94 | 1008.9 |
| 20260504183803 | 77 | 31 | 0.0 | 0.0 | 0.00 | 0.00 | 0.00 | 94 | 1009.0 |
| 20260504183300 | 77 | 31 | 0.0 | 0.0 | 0.00 | 0.00 | 0.00 | 94 | 1008.7 |
| 20260504182758 | 77 | 31 | 0.0 | 0.0 | 0.00 | 0.00 | 0.00 | 94 | 1008.9 |
| 20260504182255 | 77 | 31 | 0.0 | 0.0 | 0.00 | 0.00 | 0.00 | 94 | 1009.2 |
| 20260504181753 | 77 | 31 | 0.0 | 0.0 | 0.00 | 0.00 | 0.00 | 94 | 1009.1 |
| 20260504181250 | 76 | 31 | 0.0 | 0.0 | 0.00 | 0.00 | 0.00 | 94 | 1008.9 |
| 20260504180749 | 76 | 31 | 0.0 | 0.0 | 0.00 | 0.00 | 0.00 | 94 | 1008.9 |
| 20260504180247 | 77 | 31 | 0.0 | 0.0 | 0.00 | 0.00 | 0.00 | 94 | 1009.1 |
| 20260504175744 | 77 | 31 | 0.0 | 0.0 | 0.00 | 0.00 | 0.00 | 94 | 1009.1 |
| 20260504175241 | 77 | 31 | 0.0 | 0.0 | 0.00 | 0.00 | 0.00 | 94 | 1009.4 |
| 20260504174739 | 77 | 31 | 0.0 | 0.0 | 0.00 | 0.00 | 0.00 | 94 | 1009.4 |
| 20260504174237 | 77 | 31 | 0.0 | 0.0 | 0.00 | 0.00 | 0.00 | 94 | 1009.6 |
| 20260504173733 | 77 | 31 | 0.0 | 0.0 | 0.00 | 0.00 | 0.00 | 94 | 1009.7 |
| 20260504173230 | 77 | 31 | 0.0 | 0.0 | 0.00 | 0.00 | 0.00 | 94 | 1009.7 |
| 20260504172727 | 77 | 31 | 0.0 | 0.0 | 0.00 | 0.00 | 0.00 | 94 | 1009.8 |
| 20260504172223 | 77 | 31 | 0.0 | 0.0 | 0.00 | 0.00 | 0.00 | 94 | 1009.6 |
| 20260504171720 | 77 | 31 | 0.0 | 0.0 | 0.00 | 0.00 | 0.00 | 94 | 1009.7 |
| 20260504171217 | 77 | 31 | 0.0 | 0.0 | 0.00 | 0.00 | 0.00 | 94 | 1009.7 |
| 20260504170713 | 77 | 31 | 0.0 | 0.0 | 0.00 | 0.00 | 0.00 | 94 | 1010.1 |
| 20260504170211 | 77 | 31 | 0.0 | 0.0 | 0.00 | 0.00 | 0.00 | 94 | 1009.8 |
| 20260504160129 | 78 | 31 | 0.0 | 0.0 | 0.00 | 0.00 | 0.00 | 93 | 1010.5 |
| 20260504151056 | 78 | 31 | 0.0 | 0.0 | 0.00 | 0.01 | 0.01 | 91 | 1011.0 |
| 20260504150554 | 78 | 31 | 0.0 | 0.0 | 0.00 | 0.01 | 0.01 | 91 | 1010.7 |
| 20260504141020 | 78 | 18 | 0.0 | 0.0 | 0.00 | 0.01 | 0.01 | 93 | 1010.8 |
| 20260504140516 | 78 | 17 | 0.0 | 0.0 | 0.00 | 0.01 | 0.01 | 93 | 1011.0 |
| 20260504130441 | 78 | 170 | 0.0 | 0.0 | 0.00 | 0.01 | 0.01 | 92 | 1010.2 |
| 20260504110328 | 79 | 170 | 0.0 | 0.0 | 0.00 | 0.01 | 0.01 | 90 | 1009.5 |
| 20260504100245 | 80 | 174 | 0.0 | 0.0 | 0.00 | 0.01 | 0.01 | 86 | 1008.9 |
| 20260504081639 | 81 | 209 | 0.0 | 0.0 | 0.00 | 0.01 | 0.01 | 82 | 1008.5 |
| 20260504081135 | 81 | 27 | 0.0 | 0.0 | 0.00 | 0.01 | 0.01 | 84 | 1008.3 |